Simultaneous Nadir Overpasses (SNOs) Predictions

Prediction of SNOs between TERRA and METOP-C Satellite Orbit:

Table of predicted SNOs for the next 14.0 days since TLE Epoch: 2/3/2024
Index Date (TERRA) Time (TERRA) Lat,Lon (TERRA) SZA (TERRA ) Date (METOP-C) Time (METOP-C) Lat,Lon (METOP-C) SZA (METOP-C ) Distance(km) Time Diff (sec)
1 02/04/2024 11:48:32 79.83, 23.32 96.49 02/04/2024 11:48:33 79.82, 23.25 96.48 1.43 1
2 02/07/2024 02:19:52 79.71, 164.61 95.54 02/07/2024 02:18:52 79.71, 164.66 95.53 0.98 60
3 02/07/2024 03:09:11 -79.84, -26.76 84.30 02/07/2024 03:09:29 -79.84, -26.82 84.30 1.22 18
4 02/09/2024 17:40:32 -79.68, 114.18 85.34 02/09/2024 17:39:50 -79.67, 114.04 85.37 2.90 42
5 02/09/2024 18:29:45 79.91, -76.41 94.97 02/09/2024 18:30:21 79.92, -76.28 94.99 2.65 36
6 02/12/2024 09:01:05 79.76, 64.61 93.91 02/12/2024 09:00:41 79.77, 64.74 93.92 2.65 24
7 02/12/2024 09:50:24 -79.90,-126.69 85.92 02/12/2024 09:51:18 -79.91,-126.63 85.90 1.30 54
8 02/15/2024 00:21:44 -79.74, 14.25 87.01 02/15/2024 00:21:39 -79.73, 14.13 87.03 2.63 5



Historial Predications of SNOs between TERRA and METOP-C
